Tracking 29528 objects as of 14-Sep-2024
HD Live streaming from Space Station
objects crossing your sky now

ONEWEB-0696

Track ONEWEB-0696 now!
10-day predictions
ONEWEB-0696 is classified as:


NORAD ID: 56723
Int'l Code: 2023-068P
Perigee: 1,207.7 km
Apogee: 1,210.1 km
Inclination: 87.9 °
Period: 109.5 minutes
Semi major axis: 7579 km
RCS: Unknown
Launch date: May 20, 2023
Source: United Kingdom (UK)
Launch site: AIR FORCE WESTERN TEST RANGE (AFWTR)
Your satellite tracking list
Your tracking list is empty




NASA's NSSDC Master Catalog

Two Line Element Set (TLE):
1 56723U 23068P   24258.08543380 -.00000037  00000-0 -13218-3 0  9994
2 56723  87.9094  26.8045 0001582 106.7164 253.4140 13.15552209 65775
Source of the keplerian elements: AFSPC